| time (UTC) | temp F | wind direction | speed MPH | gust MPH | rain 1hr in | rain 24hr in | rain mn in | humidity % | barometer mb |
| 20260905234520 | 99 | 143 | 3.0 | 7.0 | 0.00 | 0.00 | 0.00 | 37 | 1007.7 |
| 20260905233020 | 99 | 187 | 2.0 | 7.0 | 0.00 | 0.00 | 0.00 | 37 | 1007.7 |
| 20260905231519 | 99 | 167 | 3.0 | 7.0 | 0.00 | 0.00 | 0.00 | 37 | 1007.6 |
| 20260905230018 | 100 | 142 | 2.0 | 7.0 | 0.00 | 0.00 | 0.00 | 36 | 1007.6 |
| 20260905224526 | 99 | 146 | 2.0 | 8.0 | 0.00 | 0.00 | 0.00 | 36 | 1007.7 |
| 20260905223015 | 99 | 127 | 5.0 | 11.0 | 0.00 | 0.00 | 0.00 | 36 | 1007.5 |
| 20260905221515 | 100 | 145 | 3.0 | 8.0 | 0.00 | 0.00 | 0.00 | 35 | 1007.6 |
| 20260905220015 | 100 | 151 | 4.0 | 8.0 | 0.00 | 0.00 | 0.00 | 36 | 1007.7 |
| 20260905214511 | 100 | 151 | 4.0 | 8.0 | 0.00 | 0.00 | 0.00 | 36 | 1007.9 |
| 20260905213009 | 99 | 145 | 4.0 | 10.0 | 0.00 | 0.00 | 0.00 | 36 | 1008.0 |
| 20260905211505 | 100 | 157 | 4.0 | 7.0 | 0.00 | 0.00 | 0.00 | 37 | 1008.2 |
| 20260905210009 | 100 | 133 | 4.0 | 9.0 | 0.00 | 0.00 | 0.00 | 37 | 1008.3 |
| 20260905204503 | 100 | 130 | 4.0 | 8.0 | 0.00 | 0.00 | 0.00 | 38 | 1008.6 |
| 20260905203102 | 100 | 135 | 4.0 | 9.0 | 0.00 | 0.00 | 0.00 | 38 | 1008.8 |
| 20260905201557 | 99 | 137 | 4.0 | 10.0 | 0.00 | 0.00 | 0.00 | 37 | 1009.1 |
| 20260905200104 | 99 | 96 | 4.0 | 9.0 | 0.00 | 0.00 | 0.00 | 38 | 1009.1 |
| 20260905194554 | 99 | 263 | 2.0 | 12.0 | 0.00 | 0.00 | 0.00 | 39 | 1009.4 |
| 20260905193106 | 99 | 107 | 3.0 | 8.0 | 0.00 | 0.00 | 0.00 | 39 | 1009.6 |
| 20260905191557 | 99 | 143 | 4.0 | 9.0 | 0.00 | 0.00 | 0.00 | 40 | 1009.9 |
| 20260905190050 | 98 | 144 | 5.0 | 11.0 | 0.00 | 0.00 | 0.00 | 41 | 1010.1 |
| 20260905184548 | 98 | 94 | 2.0 | 11.0 | 0.00 | 0.00 | 0.00 | 43 | 1010.3 |
| 20260905183047 | 99 | 222 | 2.0 | 5.0 | 0.00 | 0.00 | 0.00 | 41 | 1010.5 |
| 20260905181546 | 97 | 251 | 2.0 | 10.0 | 0.00 | 0.00 | 0.00 | 44 | 1010.6 |
| 20260905180044 | 97 | 167 | 1.0 | 6.0 | 0.00 | 0.00 | 0.00 | 44 | 1010.8 |
| 20260905174540 | 97 | 209 | 3.0 | 6.0 | 0.00 | 0.00 | 0.00 | 44 | 1011.0 |
| 20260905173038 | 97 | 165 | 2.0 | 5.0 | 0.00 | 0.00 | 0.00 | 46 | 1011.0 |
| 20260905171535 | 96 | 159 | 3.0 | 8.0 | 0.00 | 0.00 | 0.00 | 46 | 1011.2 |
| 20260905170031 | 95 | 253 | 4.0 | 8.0 | 0.00 | 0.00 | 0.00 | 47 | 1011.3 |
| 20260905164530 | 95 | 175 | 1.0 | 7.0 | 0.00 | 0.00 | 0.00 | 47 | 1011.4 |
| 20260905163026 | 94 | 165 | 2.0 | 5.0 | 0.00 | 0.00 | 0.00 | 49 | 1011.4 |
| 20260905161523 | 94 | 210 | 2.0 | 10.0 | 0.00 | 0.00 | 0.00 | 50 | 1011.4 |
| 20260905160036 | 93 | 155 | 2.0 | 8.0 | 0.00 | 0.00 | 0.00 | 51 | 1011.5 |
| 20260905154514 | 92 | 147 | 1.0 | 7.0 | 0.00 | 0.00 | 0.00 | 53 | 1011.3 |
| 20260905153010 | 91 | 243 | 2.0 | 7.0 | 0.00 | 0.00 | 0.00 | 53 | 1011.3 |
| 20260905151506 | 90 | 161 | 3.0 | 8.0 | 0.00 | 0.00 | 0.00 | 54 | 1011.2 |
| 20260905150002 | 89 | 184 | 3.0 | 9.0 | 0.00 | 0.00 | 0.00 | 56 | 1011.2 |
| 20260905144559 | 87 | 171 | 4.0 | 9.0 | 0.00 | 0.00 | 0.00 | 58 | 1011.3 |
| 20260905143058 | 86 | 224 | 2.0 | 8.0 | 0.00 | 0.00 | 0.00 | 60 | 1011.4 |
| 20260905141556 | 86 | 254 | 2.0 | 9.0 | 0.00 | 0.00 | 0.00 | 60 | 1011.3 |
| 20260905140056 | 85 | 198 | 1.0 | 6.0 | 0.00 | 0.00 | 0.00 | 61 | 1011.3 |
| 20260905134558 | 84 | 222 | 1.0 | 6.0 | 0.00 | 0.00 | 0.00 | 63 | 1011.1 |
| 20260905133053 | 83 | 182 | 2.0 | 7.0 | 0.00 | 0.00 | 0.00 | 64 | 1011.1 |
| 20260905131555 | 81 | 158 | 1.0 | 5.0 | 0.00 | 0.00 | 0.00 | 66 | 1011.0 |
| 20260905130050 | 80 | 166 | 1.0 | 6.0 | 0.00 | 0.00 | 0.00 | 67 | 1010.9 |
| 20260905124549 | 79 | 360 | 1.0 | 4.0 | 0.00 | 0.00 | 0.00 | 69 | 1010.8 |
| 20260905123047 | 79 | 360 | 1.0 | 5.0 | 0.00 | 0.00 | 0.00 | 69 | 1010.6 |
| 20260905121545 | 79 | 360 | 0.0 | 2.0 | 0.00 | 0.00 | 0.00 | 69 | 1010.5 |
| 20260905120045 | 79 | 360 | 0.0 | 3.0 | 0.00 | 0.00 | 0.00 | 69 | 1010.3 |
| 20260905114545 | 79 | 360 | 1.0 | 3.0 | 0.00 | 0.00 | 0.00 | 68 | 1010.2 |
| 20260905113041 | 79 | 360 | 1.0 | 4.0 | 0.00 | 0.00 | 0.00 | 68 | 1010.2 |
| 20260905111550 | 80 | 360 | 1.0 | 3.0 | 0.00 | 0.00 | 0.00 | 67 | 1010.3 |
| 20260905110037 | 80 | 360 | 0.0 | 4.0 | 0.00 | 0.00 | 0.00 | 67 | 1010.4 |
| 20260905104535 | 81 | 360 | 1.0 | 5.0 | 0.00 | 0.00 | 0.00 | 66 | 1010.4 |
| 20260905103033 | 81 | 360 | 0.0 | 3.0 | 0.00 | 0.00 | 0.00 | 65 | 1010.4 |
| 20260905101540 | 82 | 360 | 1.0 | 6.0 | 0.00 | 0.00 | 0.00 | 64 | 1010.2 |
| 20260905100030 | 82 | 360 | 2.0 | 4.0 | 0.00 | 0.00 | 0.00 | 64 | 1010.1 |
| 20260905094528 | 82 | 360 | 1.0 | 6.0 | 0.00 | 0.00 | 0.00 | 63 | 1010.2 |
| 20260905093025 | 83 | 360 | 1.0 | 6.0 | 0.00 | 0.00 | 0.00 | 62 | 1010.2 |
| 20260905091524 | 83 | 360 | 2.0 | 6.0 | 0.00 | 0.00 | 0.00 | 62 | 1010.0 |
| 20260905090023 | 83 | 360 | 3.0 | 8.0 | 0.00 | 0.00 | 0.00 | 61 | 1010.1 |
| 20260905084521 | 84 | 360 | 2.0 | 6.0 | 0.00 | 0.00 | 0.00 | 61 | 1010.1 |
| 20260905083024 | 84 | 360 | 2.0 | 8.0 | 0.00 | 0.00 | 0.00 | 61 | 1010.1 |
| 20260905081519 | 84 | 360 | 2.0 | 6.0 | 0.00 | 0.00 | 0.00 | 61 | 1009.9 |
| 20260905080019 | 84 | 360 | 2.0 | 8.0 | 0.00 | 0.00 | 0.00 | 60 | 1009.8 |
| 20260905074517 | 84 | 360 | 3.0 | 8.0 | 0.00 | 0.00 | 0.00 | 60 | 1009.7 |
| 20260905073022 | 85 | 360 | 3.0 | 9.0 | 0.00 | 0.00 | 0.00 | 60 | 1009.8 |
| 20260905071514 | 85 | 360 | 2.0 | 10.0 | 0.00 | 0.00 | 0.00 | 59 | 1009.9 |
| 20260905070015 | 85 | 360 | 3.0 | 8.0 | 0.00 | 0.00 | 0.00 | 59 | 1010.0 |
| 20260905064521 | 85 | 360 | 2.0 | 8.0 | 0.00 | 0.00 | 0.00 | 59 | 1010.0 |
| 20260905063010 | 85 | 360 | 3.0 | 10.0 | 0.00 | 0.00 | 0.00 | 59 | 1010.0 |
| 20260905061508 | 86 | 360 | 3.0 | 9.0 | 0.00 | 0.00 | 0.00 | 58 | 1010.1 |
| 20260905060015 | 86 | 360 | 3.0 | 8.0 | 0.00 | 0.00 | 0.00 | 58 | 1010.0 |
| 20260905054507 | 86 | 360 | 3.0 | 5.0 | 0.00 | 0.00 | 0.00 | 58 | 1010.1 |
| 20260905053015 | 86 | 360 | 1.0 | 6.0 | 0.00 | 0.00 | 0.00 | 58 | 1010.1 |
| 20260905051503 | 86 | 360 | 1.0 | 5.0 | 0.00 | 0.00 | 0.00 | 57 | 1010.1 |
| 20260905050100 | 87 | 360 | 1.0 | 5.0 | 0.00 | 0.00 | 0.00 | 57 | 1010.1 |
| 20260905044605 | 87 | 360 | 2.0 | 6.0 | 0.00 | 0.00 | 0.00 | 56 | 1010.1 |
| 20260905043058 | 88 | 360 | 2.0 | 5.0 | 0.00 | 0.00 | 0.00 | 55 | 1010.2 |
| 20260905041557 | 88 | 360 | 3.0 | 8.0 | 0.00 | 0.00 | 0.00 | 55 | 1010.2 |
| 20260905040057 | 89 | 360 | 2.0 | 9.0 | 0.00 | 0.00 | 0.00 | 54 | 1010.2 |
| 20260905034557 | 89 | 360 | 2.0 | 8.0 | 0.00 | 0.00 | 0.00 | 54 | 1010.0 |
| 20260905033101 | 90 | 360 | 3.0 | 8.0 | 0.00 | 0.00 | 0.00 | 53 | 1010.0 |
| 20260905031556 | 90 | 360 | 2.0 | 8.0 | 0.00 | 0.00 | 0.00 | 52 | 1009.7 |
| 20260905030111 | 90 | 360 | 2.0 | 5.0 | 0.00 | 0.00 | 0.00 | 52 | 1009.4 |
| 20260905024555 | 91 | 360 | 1.0 | 8.0 | 0.00 | 0.00 | 0.00 | 51 | 1009.1 |
| 20260905023053 | 91 | 360 | 2.0 | 8.0 | 0.00 | 0.00 | 0.00 | 50 | 1009.0 |
| 20260905021553 | 91 | 360 | 2.0 | 8.0 | 0.00 | 0.00 | 0.00 | 50 | 1008.7 |
| 20260905014552 | 92 | 360 | 1.0 | 8.0 | 0.00 | 0.00 | 0.00 | 49 | 1008.3 |
| 20260905013050 | 93 | 360 | 2.0 | 6.0 | 0.00 | 0.00 | 0.00 | 49 | 1008.1 |
| 20260905011550 | 93 | 360 | 2.0 | 6.0 | 0.00 | 0.00 | 0.00 | 48 | 1008.0 |
| 20260905010057 | 94 | 360 | 3.0 | 6.0 | 0.00 | 0.00 | 0.00 | 48 | 1007.7 |
| 20260905004608 | 95 | 360 | 2.0 | 6.0 | 0.00 | 0.00 | 0.00 | 47 | 1007.7 |
| 20260905003049 | 95 | 154 | 2.0 | 8.0 | 0.00 | 0.00 | 0.00 | 45 | 1007.6 |
| 20260905001548 | 96 | 133 | 4.0 | 9.0 | 0.00 | 0.00 | 0.00 | 44 | 1007.6 |
| 20260905000048 | 97 | 110 | 4.0 | 9.0 | 0.00 | 0.00 | 0.00 | 44 | 1007.5 |